SAS4043 ENGM-ENZV

Flight info

Callsign SAS4043
Flight time 0h 39m
Altitude 34000
Route ATLAP DCT IPMOD DCT ROPNO
Aircraft A320/M-SDE3FGHIRWY/LB1

Departure

Time 2026-05-07 11:42
Airport Oslo-Gardermoen International Airport (ENGM)

Arrival

Time 2026-05-07 12:21
Airport Stavanger Airport, Sola (ENZV)
Time Latitude Longitude Altitude Speed Heading
2026-05-07 11:20 60.19549 11.09499 685 ft 0 kts 196°
2026-05-07 11:23 60.19549 11.09500 685 ft 0 kts 196°
2026-05-07 11:33 60.19553 11.09502 680 ft 2 kts 196°
2026-05-07 11:33 60.19572 11.09513 682 ft 3 kts 196°
2026-05-07 11:34 60.19591 11.09524 679 ft 3 kts 196°
2026-05-07 11:34 60.19599 11.09528 677 ft 0 kts 196°
2026-05-07 11:37 60.19596 11.09524 683 ft 1 kts 214°
2026-05-07 11:37 60.19602 11.09509 683 ft 3 kts 313°
2026-05-07 11:37 60.19640 11.09447 684 ft 11 kts 323°
2026-05-07 11:38 60.19695 11.09308 683 ft 15 kts 285°
2026-05-07 11:38 60.19726 11.09089 681 ft 18 kts 286°
2026-05-07 11:38 60.19761 11.08845 678 ft 13 kts 287°
2026-05-07 11:38 60.19805 11.08702 679 ft 11 kts 346°
2026-05-07 11:39 60.19894 11.08741 679 ft 17 kts 16°
2026-05-07 11:39 60.20027 11.08818 680 ft 22 kts 16°
2026-05-07 11:39 60.20184 11.08909 681 ft 24 kts 16°
2026-05-07 11:39 60.20354 11.09007 682 ft 26 kts 15°
2026-05-07 11:40 60.20528 11.09108 682 ft 22 kts 16°
2026-05-07 11:40 60.20636 11.09117 682 ft 15 kts 310°
2026-05-07 11:40 60.20670 11.08892 679 ft 19 kts 285°
2026-05-07 11:40 60.20699 11.08681 679 ft 10 kts 272°
2026-05-07 11:41 60.20655 11.08617 679 ft 6 kts 195°
2026-05-07 11:41 60.20491 11.08522 678 ft 59 kts 196°
2026-05-07 11:41 60.19871 11.08165 673 ft 123 kts 196°
2026-05-07 11:41 60.18885 11.07595 702 ft 168 kts 196°
2026-05-07 11:42 60.17762 11.06917 1313 ft 170 kts 198°
2026-05-07 11:42 60.16706 11.05847 2017 ft 173 kts 222°
2026-05-07 11:42 60.15965 11.03919 2743 ft 179 kts 245°
2026-05-07 11:42 60.15460 11.01551 3438 ft 190 kts 248°
2026-05-07 11:43 60.14937 10.99035 4071 ft 203 kts 247°
2026-05-07 11:43 60.14404 10.96231 4477 ft 227 kts 252°
2026-05-07 11:43 60.13924 10.93034 4963 ft 251 kts 254°
2026-05-07 11:43 60.13442 10.89575 5736 ft 261 kts 255°
2026-05-07 11:44 60.12958 10.86036 6714 ft 265 kts 255°
2026-05-07 11:44 60.12626 10.83618 7362 ft 267 kts 255°
2026-05-07 11:44 60.12124 10.80005 8349 ft 271 kts 255°
2026-05-07 11:44 60.11613 10.76356 9325 ft 273 kts 255°
2026-05-07 11:45 60.11095 10.72685 10235 ft 276 kts 255°
2026-05-07 11:45 60.10556 10.68874 10575 ft 299 kts 255°
2026-05-07 11:45 60.09970 10.64738 11009 ft 315 kts 255°
2026-05-07 11:45 60.09367 10.60488 11751 ft 319 kts 255°
2026-05-07 11:46 60.08753 10.56200 12565 ft 321 kts 255°
2026-05-07 11:46 60.08131 10.51888 13385 ft 324 kts 255°
2026-05-07 11:46 60.07504 10.47538 14159 ft 326 kts 255°
2026-05-07 11:46 60.06874 10.43157 14874 ft 328 kts 255°
2026-05-07 11:47 60.06232 10.38765 15582 ft 330 kts 253°
2026-05-07 11:47 60.05280 10.34531 16268 ft 335 kts 245°
2026-05-07 11:47 60.04201 10.30404 16977 ft 337 kts 244°
2026-05-07 11:47 60.03103 10.26248 17695 ft 339 kts 244°
2026-05-07 11:48 60.01991 10.22070 18417 ft 341 kts 244°
2026-05-07 11:48 60.00866 10.17873 19049 ft 343 kts 244°
2026-05-07 11:48 59.99736 10.13664 19713 ft 345 kts 244°
2026-05-07 11:48 59.98601 10.09438 20382 ft 347 kts 245°
2026-05-07 11:49 59.97457 10.05182 21037 ft 349 kts 245°
2026-05-07 11:49 59.96302 10.00886 21698 ft 351 kts 245°
2026-05-07 11:49 59.95139 9.96579 22335 ft 353 kts 245°
2026-05-07 11:49 59.93969 9.92249 22970 ft 355 kts 245°
2026-05-07 11:50 59.92794 9.87896 23555 ft 357 kts 246°
2026-05-07 11:50 59.91612 9.83527 24042 ft 360 kts 246°
2026-05-07 11:50 59.90416 9.79114 24488 ft 362 kts 246°
2026-05-07 11:50 59.89213 9.74695 24952 ft 365 kts 246°
2026-05-07 11:51 59.88011 9.70297 25411 ft 367 kts 246°
2026-05-07 11:51 59.86791 9.65832 25860 ft 369 kts 246°
2026-05-07 11:51 59.85559 9.61337 26311 ft 371 kts 246°
2026-05-07 11:51 59.84302 9.56754 26766 ft 373 kts 246°
2026-05-07 11:52 59.83074 9.52279 27191 ft 375 kts 246°
2026-05-07 11:52 59.81815 9.47705 27618 ft 378 kts 246°
2026-05-07 11:52 59.80549 9.43115 28041 ft 380 kts 246°
2026-05-07 11:52 59.79274 9.38504 28455 ft 382 kts 246°
2026-05-07 11:53 59.77988 9.33864 28852 ft 385 kts 246°
2026-05-07 11:53 59.76696 9.29202 29252 ft 387 kts 246°
2026-05-07 11:53 59.75393 9.24499 29650 ft 389 kts 246°
2026-05-07 11:53 59.74082 9.19786 30057 ft 391 kts 246°
2026-05-07 11:54 59.72759 9.15056 30401 ft 394 kts 246°
2026-05-07 11:54 59.71425 9.10300 30722 ft 396 kts 246°
2026-05-07 11:54 59.70085 9.05527 31037 ft 398 kts 246°
2026-05-07 11:54 59.68731 9.00717 31349 ft 401 kts 246°
2026-05-07 11:55 59.67367 8.95890 31675 ft 402 kts 246°
2026-05-07 11:55 59.66003 8.91077 32022 ft 402 kts 246°
2026-05-07 11:55 59.64645 8.86284 32097 ft 394 kts 246°
2026-05-07 11:56 59.62007 8.77031 32104 ft 382 kts 246°
2026-05-07 11:56 59.59411 8.67919 32102 ft 381 kts 246°
2026-05-07 11:57 59.56812 8.58796 32099 ft 381 kts 246°
2026-05-07 11:57 59.55494 8.54176 32098 ft 393 kts 246°
2026-05-07 11:57 59.54136 8.49424 32091 ft 402 kts 245°
2026-05-07 11:58 59.51350 8.39760 32103 ft 408 kts 245°
2026-05-07 11:58 59.48531 8.30065 32098 ft 409 kts 245°
2026-05-07 11:59 59.45709 8.20388 31632 ft 405 kts 245°
2026-05-07 11:59 59.44301 8.15563 30714 ft 407 kts 245°
2026-05-07 11:59 59.42888 8.10729 29704 ft 409 kts 245°
2026-05-07 11:59 59.41467 8.05876 28672 ft 410 kts 244°
2026-05-07 12:00 59.40037 8.01016 27745 ft 409 kts 244°
2026-05-07 12:00 59.38634 7.96264 26952 ft 406 kts 244°
2026-05-07 12:00 59.37229 7.91503 26187 ft 402 kts 244°
2026-05-07 12:00 59.35816 7.86719 25445 ft 398 kts 244°
2026-05-07 12:01 59.34451 7.82105 24735 ft 395 kts 243°
2026-05-07 12:01 59.33073 7.77458 24054 ft 392 kts 243°
2026-05-07 12:01 59.31708 7.72867 23337 ft 389 kts 243°
2026-05-07 12:01 59.30352 7.68313 22555 ft 386 kts 243°
2026-05-07 12:02 59.29002 7.63796 21819 ft 382 kts 243°
2026-05-07 12:02 59.27664 7.59324 21118 ft 379 kts 243°
2026-05-07 12:02 59.26337 7.54894 20450 ft 376 kts 242°
2026-05-07 12:02 59.25016 7.50489 19818 ft 374 kts 242°
2026-05-07 12:03 59.23701 7.46114 19253 ft 372 kts 242°
2026-05-07 12:03 59.22395 7.41772 18672 ft 370 kts 242°
2026-05-07 12:03 59.21095 7.37454 18074 ft 368 kts 242°
2026-05-07 12:03 59.19801 7.33171 17455 ft 365 kts 242°
2026-05-07 12:04 59.18512 7.28917 16847 ft 362 kts 241°
2026-05-07 12:04 59.17233 7.24719 16256 ft 359 kts 241°
2026-05-07 12:04 59.15960 7.20543 15654 ft 357 kts 241°
2026-05-07 12:04 59.14698 7.16396 15043 ft 354 kts 241°
2026-05-07 12:05 59.13446 7.12288 14422 ft 352 kts 240°
2026-05-07 12:05 59.12202 7.08214 13812 ft 349 kts 240°
2026-05-07 12:05 59.10966 7.04170 13133 ft 347 kts 240°
2026-05-07 12:05 59.09752 7.00209 12466 ft 345 kts 240°
2026-05-07 12:06 59.08527 6.96225 11817 ft 342 kts 240°
2026-05-07 12:06 59.07306 6.92259 11192 ft 340 kts 239°
2026-05-07 12:06 59.06090 6.88318 10565 ft 339 kts 239°
2026-05-07 12:06 59.04881 6.84402 9945 ft 337 kts 239°
2026-05-07 12:07 59.03697 6.80575 9765 ft 323 kts 239°
2026-05-07 12:07 59.02567 6.76927 9621 ft 309 kts 239°
2026-05-07 12:07 59.01480 6.73427 9471 ft 297 kts 239°
2026-05-07 12:07 59.00432 6.70059 9333 ft 286 kts 239°
2026-05-07 12:08 58.99421 6.66816 9195 ft 277 kts 238°
2026-05-07 12:08 58.98435 6.63656 8978 ft 271 kts 238°
2026-05-07 12:08 58.97462 6.60537 8819 ft 270 kts 238°
2026-05-07 12:08 58.96489 6.57422 8688 ft 270 kts 238°
2026-05-07 12:09 58.95514 6.54303 8555 ft 270 kts 238°
2026-05-07 12:09 58.94541 6.51197 8420 ft 270 kts 238°
2026-05-07 12:09 58.93566 6.48094 8291 ft 270 kts 238°
2026-05-07 12:09 58.92591 6.44993 8149 ft 269 kts 238°
2026-05-07 12:10 58.91617 6.41900 8026 ft 269 kts 238°
2026-05-07 12:10 58.90642 6.38810 7897 ft 269 kts 237°
2026-05-07 12:10 58.89996 6.36765 7809 ft 268 kts 237°
2026-05-07 12:11 58.89034 6.33688 7679 ft 268 kts 237°
2026-05-07 12:11 58.88063 6.30610 7531 ft 267 kts 237°
2026-05-07 12:11 58.87093 6.27546 7213 ft 267 kts 237°
2026-05-07 12:11 58.86125 6.24496 6936 ft 266 kts 237°
2026-05-07 12:12 58.85158 6.21461 6791 ft 263 kts 237°
2026-05-07 12:12 58.84223 6.18528 6658 ft 256 kts 236°
2026-05-07 12:12 58.83305 6.15644 6530 ft 248 kts 236°
2026-05-07 12:12 58.82413 6.12841 6408 ft 244 kts 237°
2026-05-07 12:13 58.81535 6.10080 6264 ft 238 kts 236°
2026-05-07 12:13 58.80680 6.07390 6111 ft 234 kts 236°
2026-05-07 12:13 58.79825 6.04721 5905 ft 233 kts 236°
2026-05-07 12:13 58.78974 6.02066 5727 ft 232 kts 236°
2026-05-07 12:14 58.78127 5.99429 5518 ft 231 kts 236°
2026-05-07 12:14 58.77280 5.96801 5249 ft 231 kts 236°
2026-05-07 12:14 58.76436 5.94186 4991 ft 229 kts 236°
2026-05-07 12:14 58.75596 5.91582 4689 ft 229 kts 236°
2026-05-07 12:15 58.74759 5.88979 4443 ft 228 kts 236°
2026-05-07 12:15 58.73928 5.86387 4205 ft 227 kts 236°
2026-05-07 12:15 58.73103 5.83824 4039 ft 222 kts 236°
2026-05-07 12:15 58.72301 5.81338 3908 ft 215 kts 236°
2026-05-07 12:16 58.71588 5.78861 3781 ft 211 kts 248°
2026-05-07 12:16 58.71304 5.76112 3641 ft 210 kts 267°
2026-05-07 12:16 58.71502 5.73376 3471 ft 211 kts 287°
2026-05-07 12:16 58.71993 5.70704 3306 ft 211 kts 288°
2026-05-07 12:17 58.72477 5.68041 3164 ft 210 kts 288°
2026-05-07 12:17 58.73177 5.65647 3066 ft 205 kts 314°
2026-05-07 12:17 58.74390 5.64281 2816 ft 207 kts 346°
2026-05-07 12:17 58.75832 5.64082 2602 ft 204 kts 359°
2026-05-07 12:18 58.77233 5.64037 2415 ft 198 kts 359°
2026-05-07 12:18 58.78590 5.64011 2135 ft 193 kts 360°
2026-05-07 12:18 58.79890 5.63984 1872 ft 180 kts 360°
2026-05-07 12:18 58.81085 5.63984 1642 ft 160 kts 360°
2026-05-07 12:19 58.82144 5.63952 1364 ft 146 kts 358°
2026-05-07 12:19 58.83133 5.63921 1061 ft 139 kts 358°
2026-05-07 12:19 58.84086 5.63891 761 ft 135 kts 357°
2026-05-07 12:19 58.85017 5.63867 534 ft 133 kts 356°
2026-05-07 12:20 58.85939 5.63835 330 ft 133 kts 355°
2026-05-07 12:20 58.86858 5.63803 126 ft 131 kts 355°
2026-05-07 12:20 58.87732 5.63778 34 ft 111 kts 359°
2026-05-07 12:20 58.88321 5.63763 31 ft 61 kts 359°
2026-05-07 12:21 58.88603 5.63757 29 ft 32 kts 359°
2026-05-07 12:21 58.88706 5.63642 28 ft 12 kts 257°
2026-05-07 12:21 58.88709 5.63496 32 ft 10 kts 270°
2026-05-07 12:21 58.88709 5.63490 32 ft 0 kts 270°